TimeMST,TemperatureF,Dew PointF,Humidity,Sea Level PressureIn,VisibilityMPH,Wind Direction,Wind SpeedMPH,Gust SpeedMPH,PrecipitationIn,Events,Conditions,WindDirDegrees,DateUTC
12:15 AM,39.2,19.4,45,30.22,7.0,SSE,8.1,-,N/A,,Clear,160,2012-10-20 07:15:00
12:35 AM,41.0,19.4,42,30.21,6.0,SSE,8.1,-,N/A,,Clear,160,2012-10-20 07:35:00
12:55 AM,39.2,19.4,45,30.21,8.0,SSE,9.2,-,N/A,,Clear,160,2012-10-20 07:55:00
1:15 AM,39.2,19.4,45,30.20,10.0,SSE,9.2,-,N/A,,Clear,160,2012-10-20 08:15:00
1:35 AM,37.4,19.4,48,30.20,10.0,SSE,8.1,-,N/A,,Clear,160,2012-10-20 08:35:00
1:55 AM,37.4,21.2,52,30.20,10.0,SSE,8.1,-,N/A,,Clear,160,2012-10-20 08:55:00
2:15 AM,35.6,21.2,56,30.20,10.0,SSE,8.1,-,N/A,,Clear,160,2012-10-20 09:15:00
2:35 AM,35.6,21.2,56,30.19,10.0,SSE,9.2,-,N/A,,Clear,160,2012-10-20 09:35:00
2:55 AM,35.6,21.2,56,30.19,10.0,SSE,8.1,-,N/A,,Clear,150,2012-10-20 09:55:00
3:15 AM,35.6,21.2,56,30.18,10.0,SSE,9.2,-,N/A,,Clear,160,2012-10-20 10:15:00
3:35 AM,35.6,21.2,56,30.17,10.0,SSE,9.2,-,N/A,,Clear,160,2012-10-20 10:35:00
3:55 AM,35.6,19.4,52,30.17,10.0,SSE,9.2,-,N/A,,Clear,160,2012-10-20 10:55:00
4:15 AM,33.8,21.2,60,30.16,10.0,SSE,8.1,-,N/A,,Clear,150,2012-10-20 11:15:00
4:35 AM,33.8,21.2,60,30.16,10.0,SSE,9.2,-,N/A,,Clear,160,2012-10-20 11:35:00
4:55 AM,33.8,21.2,60,30.17,10.0,SSE,9.2,-,N/A,,Clear,160,2012-10-20 11:55:00
5:15 AM,33.8,21.2,60,30.17,10.0,SSE,9.2,-,N/A,,Clear,160,2012-10-20 12:15:00
5:35 AM,35.6,21.2,56,30.16,10.0,SSE,9.2,-,N/A,,Clear,150,2012-10-20 12:35:00
5:55 AM,35.6,21.2,56,30.16,10.0,SSE,9.2,-,N/A,,Clear,150,2012-10-20 12:55:00
6:15 AM,33.8,21.2,60,30.16,10.0,SSE,9.2,-,N/A,,Clear,150,2012-10-20 13:15:00
6:35 AM,33.8,21.2,60,30.16,10.0,SSE,9.2,-,N/A,,Clear,160,2012-10-20 13:35:00
6:55 AM,33.8,21.2,60,30.16,10.0,SSE,10.4,-,N/A,,Clear,160,2012-10-20 13:55:00
7:15 AM,35.6,21.2,56,30.16,10.0,SSE,10.4,-,N/A,,Clear,160,2012-10-20 14:15:00
7:35 AM,39.2,21.2,49,30.16,10.0,SSE,10.4,-,N/A,,Clear,160,2012-10-20 14:35:00
7:55 AM,44.6,21.2,39,30.17,10.0,SSE,8.1,-,N/A,,Clear,160,2012-10-20 14:55:00
8:15 AM,50.0,23.0,35,30.17,10.0,SSE,6.9,-,N/A,,Clear,150,2012-10-20 15:15:00
8:35 AM,53.6,24.8,33,30.18,10.0,SSE,6.9,-,N/A,,Clear,150,2012-10-20 15:35:00
8:55 AM,59.0,24.8,27,30.18,10.0,SSE,5.8,-,N/A,,Clear,150,2012-10-20 15:55:00
9:15 AM,64.4,23.0,21,30.18,10.0,SSW,12.7,-,N/A,,Clear,200,2012-10-20 16:15:00
9:35 AM,64.4,19.4,18,30.18,10.0,SSW,13.8,18.4,N/A,,Clear,210,2012-10-20 16:35:00
9:55 AM,64.4,19.4,18,30.17,10.0,SW,11.5,17.3,N/A,,Clear,220,2012-10-20 16:55:00
10:15 AM,66.2,19.4,17,30.17,10.0,SSW,12.7,18.4,N/A,,Clear,210,2012-10-20 17:15:00
10:35 AM,66.2,19.4,17,30.17,10.0,South,13.8,20.7,N/A,,Clear,190,2012-10-20 17:35:00
10:55 AM,66.2,28.4,24,30.17,10.0,SSW,16.1,24.2,N/A,,Clear,200,2012-10-20 17:55:00
11:15 AM,66.2,30.2,26,30.16,10.0,SW,16.1,19.6,N/A,,Clear,220,2012-10-20 18:15:00
11:35 AM,66.2,32.0,28,30.15,10.0,SW,17.3,23.0,N/A,,Clear,220,2012-10-20 18:35:00
11:55 AM,66.2,32.0,28,30.15,10.0,SW,15.0,25.3,N/A,,Clear,230,2012-10-20 18:55:00
12:15 PM,66.2,32.0,28,30.14,10.0,SSW,12.7,21.9,N/A,,Clear,210,2012-10-20 19:15:00
12:35 PM,66.2,30.2,26,30.13,10.0,SSW,15.0,20.7,N/A,,Clear,210,2012-10-20 19:35:00
12:55 PM,66.2,28.4,24,30.13,10.0,SSW,13.8,21.9,N/A,,Clear,200,2012-10-20 19:55:00
1:15 PM,68.0,28.4,23,30.12,10.0,SSW,12.7,19.6,N/A,,Clear,210,2012-10-20 20:15:00
1:35 PM,68.0,26.6,21,30.11,10.0,SW,11.5,23.0,N/A,,Clear,220,2012-10-20 20:35:00
2:15 PM,68.0,28.4,23,30.10,10.0,South,10.4,21.9,N/A,,Clear,170,2012-10-20 21:15:00
2:35 PM,68.0,28.4,23,30.09,10.0,SW,12.7,19.6,N/A,,Clear,230,2012-10-20 21:35:00
3:15 PM,68.0,28.4,23,30.09,10.0,South,12.7,20.7,N/A,,Clear,190,2012-10-20 22:15:00
3:35 PM,66.2,26.6,23,30.09,10.0,SW,11.5,-,N/A,,Clear,230,2012-10-20 22:35:00
3:55 PM,64.4,26.6,24,30.09,10.0,SSW,15.0,-,N/A,,Clear,200,2012-10-20 22:55:00
4:15 PM,64.4,26.6,24,30.09,10.0,SW,11.5,18.4,N/A,,Clear,220,2012-10-20 23:15:00
4:35 PM,62.6,26.6,26,30.09,10.0,SW,11.5,-,N/A,,Clear,220,2012-10-20 23:35:00
4:55 PM,64.4,26.6,24,30.08,10.0,WSW,11.5,16.1,N/A,,Clear,240,2012-10-20 23:55:00
5:15 PM,64.4,28.4,26,30.08,10.0,SW,9.2,-,N/A,,Clear,230,2012-10-21 00:15:00
5:35 PM,62.6,28.4,27,30.08,10.0,SSW,10.4,19.6,N/A,,Clear,200,2012-10-21 00:35:00
6:15 PM,59.0,28.4,31,30.09,10.0,SSW,5.8,-,N/A,,Clear,210,2012-10-21 01:15:00
6:35 PM,57.2,26.6,31,30.09,10.0,SSW,8.1,-,N/A,,Clear,200,2012-10-21 01:35:00
6:55 PM,57.2,26.6,31,30.09,10.0,SSW,8.1,-,N/A,,Clear,200,2012-10-21 01:55:00
7:15 PM,55.4,26.6,33,30.09,10.0,SSW,8.1,-,N/A,,Clear,200,2012-10-21 02:15:00
7:35 PM,55.4,26.6,33,30.10,10.0,SSW,8.1,-,N/A,,Clear,200,2012-10-21 02:35:00
7:55 PM,55.4,26.6,33,30.10,10.0,SSW,8.1,-,N/A,,Clear,200,2012-10-21 02:55:00
8:15 PM,53.6,24.8,33,30.10,10.0,SSW,8.1,-,N/A,,Clear,200,2012-10-21 03:15:00
8:35 PM,53.6,24.8,33,30.11,10.0,SSW,8.1,-,N/A,,Clear,200,2012-10-21 03:35:00
8:55 PM,53.6,24.8,33,30.11,10.0,South,8.1,-,N/A,,Clear,190,2012-10-21 03:55:00
9:15 PM,51.8,24.8,35,30.11,10.0,SSW,8.1,-,N/A,,Clear,200,2012-10-21 04:15:00
9:35 PM,51.8,26.6,38,30.11,10.0,South,8.1,-,N/A,,Clear,190,2012-10-21 04:35:00
9:55 PM,50.0,26.6,40,30.11,10.0,South,6.9,-,N/A,,Clear,180,2012-10-21 04:55:00
10:15 PM,46.4,26.6,46,30.12,10.0,SSE,5.8,-,N/A,,Clear,160,2012-10-21 05:15:00
10:35 PM,46.4,26.6,46,30.12,10.0,SSE,5.8,-,N/A,,Clear,160,2012-10-21 05:35:00
10:55 PM,46.4,26.6,46,30.12,10.0,SSE,5.8,-,N/A,,Clear,150,2012-10-21 05:55:00
11:15 PM,44.6,28.4,53,30.12,10.0,South,6.9,-,N/A,,Clear,180,2012-10-21 06:15:00
11:35 PM,46.4,28.4,50,30.12,10.0,South,6.9,-,N/A,,Clear,190,2012-10-21 06:35:00
11:55 PM,48.2,30.2,50,30.12,10.0,South,6.9,-,N/A,,Clear,170,2012-10-21 06:55:00